Location: Newark
(54.9353°N, 24.1167°E)
Time: 08:38:29
(UTC+00:00)

Envisat - Pass Details

Date: 06 October 2020
Orbit: 764 x 766 km, 98.1° (Epoch: 23 October)

Event Time Altitude Azimuth Distance (km) Brightness Sun altitude
Rises 16:18:10 0° 194° (SSW) 3,223 6.4 -5.4°
Reaches altitude 10° 16:20:42 10° 204° (SSW) 2,301 5.8 -5.8°
Maximum altitude 16:25:11 31° 267° (W) 1,323 5.3 -6.5°
Drops below altitude 10° 16:29:43 10° 329° (NNW) 2,316 6.0 -7.1°
Sets 16:32:17 0° 340° (NNW) 3,247 6.5 -7.5°
